Location: ??????
(56.0120°N, 39.1740°E)
Time: 08:31:42
(UTC+00:00)

Cosmos 1943 Rocket - Pass Details

Date: 14 April 2026
Orbit: 809 x 844 km, 71.0° (Epoch: 9 May)

Event Time Altitude Azimuth Distance (km) Brightness Sun altitude
Rises 19:04:33 0° 319° (NW) 3,415 7.1 -18.3°
Reaches altitude 10° 19:07:39 10° 303° (WNW) 2,475 5.7 -18.6°
Maximum altitude 19:11:31 19° 260° (W) 1,907 4.3 -18.9°
Drops below altitude 10° 19:15:20 10° 217° (SW) 2,458 4.4 -19.2°
Enters shadow 19:16:22 - 210° (SSW) 2,740 4.6 -19.3°
